PICSAT (43132 NORAD) Tracking and Keplerian Element Data

This shows tracking and keplerian element data for the satellite.

Feedback or suggestion? Click here.




ElementValue
Catalog43132
NamePICSAT
Epoch Orbit27035
Epoch Day324.71270747
Epoch Year2022
RAAN40.5753
Inclination97.3595
Eccentricity0.0007641
Argument of Perigee151.4574
Mean Anonmoly208.709
Mean Motion15.36320929
Decay Rate0.00014325
L11 43132U 18004X 22324.71270747 .00014325 00000+0 40615-3 0 9997
L22 43132 97.3595 40.5753 0007641 151.4574 208.7090 15.36320929270355



Live tracking and technical data element details for PICSAT (NORAD 43132). PICSAT can be tracked NOW for your location showing map with azimuth and elevation plus other details from your city location.







IsCatalogInMostPopularTable: catalog: 43132, numindb: 893
Update: records affected: 1



GetName: 43132 PICSAT

Hit Count: updated at: Fri, 02 Dec 2022 12:01:22 GMT